User: anonymous   Login
Location: Arroyo Retuerta
(40.5469°N, 4.3534°W)
Time: 00:09:41
(UTC+00:00)
Language:

Cosmos 1992 Rocket - Orbit

View from above orbital plane
View from above orbital plane
View from above satellite
View from above satellite

Ground track
Ground track

The orbit data is extracted from the following two-line orbital elements,

1 19770U 89005B   21167.60439455  .00000008  00000-0  11336-4 0  9995
2 19770  74.0452 237.4480 0005882 307.7324 157.9855 14.38875681696322
Epoch (UTC): 16 June 2021 14:30:19
Eccentricity: 0.0005882
inclination: 74.0452°
perigee height: 758 km
apogee height: 766 km
right ascension of ascending node: 237.4480°
argument of perigee: 307.7324°
revolutions per day: 14.38875681
mean anomaly at epoch: 157.9855°
orbit number at epoch: 69632

The dashed part of the orbit path shows where the satellite is in the earth's shadow,  

DLR